KSANKPSP

Guest
Details From KSAN - San Diego Intl
To KPSP - Palm Springs Intl
Flight Number -
Tags generated
Created
Modified
Stats Distance 74 nm / 138 km
Max Altitude 2,500 ft / 762 m
Waypoints 3
Social Downloads 0
Likes 0
Share VATSIM

Download

Looking for another format? Having issues loading an existing format? Contact us
Advertisement - Login to hide

Notes

Basic altitude profile: - Ascent Rate: 3000ft/min - Ascent Speed: 240kts - Cruise Altitude: 18000ft - Cruise Speed: 350kts - Descent Rate: 2800ft/min - Descent Speed: 240kts Options: - Use NATs: yes - Use PACOTS: yes - Use low airways: yes - Use high airways: yes

Route

KSAN HAPPE KPSP

ID Type Via Altitude Latitude Longitude Leg Dist Tot Dist Heading (true) Name
O KSAN APT - 0 ft / 0 m 32.73356˚ -117.18966˚ - 0 nm - San Diego Intl
HAPPE FIX - 2,500 ft / 762 m 33.67163˚ -116.65659˚ 62 nm 62 nm 25° / 26° -
O KPSP APT - 0 ft / 0 m 33.82968˚ -116.50622˚ 12 nm 74 nm 38° / 38° Palm Springs Intl

Altitude Profile

Advertisement - Login to hide

KSAN

Details ICAO KSAN (SAN)
Name San Diego Intl
Region United States
Timezone America/Los_Angeles (UTC-8.0)
Stats Elevation 17 ft / 5 m (AMSL)
Location 32.733556° -117.189658°
Runways 1
Magnetic Variation 11.525° E

METAR

KSAN 140351Z 11006KT 10SM CLR 17/07 A2999 RMK AO2 SLP156 T01670072

Decode

TAF

TAF AMD KSAN 140246Z 1403/1506 VRB04KT P6SM SKC FM142100 30009KT P6SM SKC FM150100 VRB04KT P6SM SKC

Decode

Departure Runways

ID Width Length Bearing (true) Bearing (mag) Surface Threshold Offset Overrun Length
09 200 ft / 61 m 9,387 ft / 2,861 m 106.07° 94.54° Asphalt 699 ft / 213 m 269 ft / 82 m
27 200 ft / 61 m 9,387 ft / 2,861 m 286.08° 274.55° Asphalt 1,811 ft / 552 m 0 ft / 0 m

KPSP

Details ICAO KPSP (PSP)
Name Palm Springs Intl
Region United States
Timezone America/Los_Angeles (UTC-8.0)
Stats Elevation 477 ft / 145 m (AMSL)
Location 33.829677° -116.506218°
Runways 2
Magnetic Variation 11.580° E

METAR

KPSP 140353Z VRB03KT 10SM CLR 16/M09 A2995 RMK AO2 SLP144 T01561089

Decode

TAF

KPSP 132339Z 1400/1424 VRB05KT P6SM SKC FM141300 33012G20KT P6SM SKC

Decode

Destination Runways

ID Width Length Bearing (true) Bearing (mag) Surface Threshold Offset Overrun Length
13L 75 ft / 23 m 4,958 ft / 1,511 m 143.52° 131.94° Asphalt 0 ft / 0 m 151 ft / 46 m
13R 151 ft / 46 m 10,012 ft / 3,052 m 143.52° 131.94° Asphalt 2,999 ft / 914 m 200 ft / 61 m
31L 151 ft / 46 m 10,012 ft / 3,052 m 323.53° 311.95° Asphalt 1,499 ft / 457 m 200 ft / 61 m
31R 75 ft / 23 m 4,958 ft / 1,511 m 323.53° 311.95° Asphalt 0 ft / 0 m 151 ft / 46 m

Popular Alternatives